GFSMA_con_mlcape_081.txt.gz
CAPE
0 0 0 0 0 0 0 0 0 0 0 0 0 0 0 0 0 0 0 0 0 0 0 0 0 44 52 30 12 0 0 0 0 0 0 0 0 0 0 0 0 0 0
4 0 0 0 0 0 0 0 0 0 0 0 0 0 0 0 0 0 0 0 0 0 0 1 1 13 38 72 44 73 43 25 3 1 0 0 0 0 0 0 0 0 0
29 20 16 11 0 0 0 0 0 0 0 0 0 0 0 0 0 0 0 0 0 0 0 0 2 10 26 54 68 47 30 29 58 43 18 1 0 0 0 0 0 0 0
40 28 8 15 0 0 0 0 0 0 0 0 0 0 0 0 0 0 0 0 0 0 0 0 0 9 25 46 61 58 46 48 32 43 59 65 25 3 0 0 0 0 0
60 18 4 7 0 0 0 0 0 0 0 0 0 0 0 0 0 0 0 0 0 0 0 0 0 0 10 24 36 74 45 52 42 25 26 39 56 77 52 10 0 0 0
2 0 0 0 0 0 0 0 0 0 0 6 5 11 11 0 0 0 0 0 0 0 0 0 0 0 0 15 30 28 43 52 45 28 27 11 14 43 55 100 56 3 0
11 0 1 0 0 7 0 0 0 0 10 15 16 12 3 0 0 0 0 0 0 0 0 0 0 0 0 0 7 16 40 32 17 0 0 6 10 2 7 24 44 67 3
89 39 17 5 1 28 23 22 23 58 56 54 60 3 0 0 0 0 0 0 0 0 0 0 0 0 0 0 8 15 18 8 8 2 0 0 0 10 25 41 56 64 64
101 49 29 29 6 33 56 68 70 121 127 74 42 16 2 0 0 0 0 0 0 0 0 0 0 0 0 0 0 0 0 4 8 9 3 0 0 1 6 19 35 39 28
50 35 30 28 15 18 16 66 109 117 79 89 25 24 0 2 4 0 0 0 0 0 0 0 0 0 0 0 0 0 0 0 6 13 7 3 1 0 0 0 2 25 21
56 77 76 40 9 10 2 0 5 9 25 41 47 6 0 0 0 0 0 0 0 0 0 0 0 0 0 0 0 0 0 5 5 11 1 1 1 1 5 7 3 3 2
24 13 45 29 1 8 7 0 0 0 0 0 0 0 0 0 0 0 0 0 0 0 0 0 0 0 0 0 0 0 0 0 0 0 4 3 0 0 2 6 7 4 5
27 13 32 33 6 0 0 0 0 0 0 0 0 0 0 0 0 0 0 0 0 0 0 0 0 0 0 0 0 0 0 0 0 0 0 2 0 0 6 3 0 5 6
61 30 16 2 2 4 0 0 0 0 0 0 0 0 0 0 0 0 0 1 1 3 2 1 0 0 0 0 0 0 0 1 0 0 0 1 1 0 4 7 16 35 28
6 0 0 0 0 0 0 0 0 0 0 0 0 0 0 0 0 0 1 2 3 0 0 1 0 0 2 1 0 0 1 0 1 0 0 0 0 1 2 2 1 2 6
0 0 0 0 0 0 0 0 0 0 0 0 0 0 0 0 0 0 0 1 1 2 2 1 0 0 2 1 1 0 0 0 0 0 0 0 0 1 3 3 3 3 2
0 0 0 0 0 0 0 0 0 0 0 0 0 0 0 0 0 0 0 1 0 1 2 1 0 2 2 2 1 0 0 0 0 0 0 0 0 0 0 1 3 2 1
0 0 0 0 0 0 0 0 0 0 0 0 0 0 0 0 0 0 0 0 0 0 0 4 0 1 1 1 0 0 0 0 0 0 0 0 0 0 0 0 1 1 1
0 0 0 0 0 0 0 0 0 0 0 0 0 0 0 0 0 0 0 0 0 0 0 0 0 1 1 1 1 1 0 0 0 0 0 0 0 0 1 0 0 0 0
0 0 0 0 0 0 0 0 0 0 0 0 0 0 0 0 0 0 0 0 0 0 0 0 0 0 0 2 1 1 1 0 0 0 0 0 0 0 0 0 0 0 0
0 0 0 0 0 0 0 0 0 0 0 0 0 0 0 0 0 0 0 0 0 0 0 0 0 0 0 0 0 0 0 0 0 0 0 0 0 0 0 0 0 0 0
0 0 0 0 0 0 0 0 0 0 0 0 0 0 0 0 0 0 0 0 0 0 0 0 0 0 0 0 0 0 0 0 0 0 0 0 0 0 0 0 0 0 0
0 0 0 0 0 0 0 0 0 0 0 0 0 0 0 0 0 0 0 0 0 0 0 0 0 0 0 0 0 0 0 0 0 0 0 0 0 0 0 0 0 0 0
0 0 0 0 0 0 0 0 0 1 0 0 0 0 0 0 0 0 0 0 0 0 0 0 0 0 0 0 0 0 0 0 0 0 0 0 0 0 0 0 0 0 0
0 0 0 0 0 0 0 0 0 0 0 0 0 0 0 0 0 0 0 0 0 0 0 0 0 0 0 0 0 0 0 0 0 0 0 0 0 0 0 0 0 0 0
0 0 0 0 0 0 0 0 0 0 0 0 0 0 0 0 0 0 0 0 0 0 0 0 0 0 0 0 0 0 0 0 0 0 0 0 0 0 0 0 0 0 0

GFSMA_con_mlcape_087.txt.gz
CAPE
0 0 0 0 0 0 0 0 0 0 0 0 0 0 0 0 0 0 0 0 0 0 0 0 0 0 15 24 20 17 0 0 0 0 0 0 0 0 0 0 0 0 0
0 0 0 0 0 0 0 0 0 0 0 0 0 0 0 0 0 0 0 0 0 0 0 0 0 3 11 31 49 62 25 20 16 11 3 0 0 0 0 0 0 0 0
0 0 0 0 0 0 0 0 0 0 0 0 0 0 0 2 0 0 5 9 3 0 0 0 0 6 19 21 42 65 10 21 7 46 33 43 17 0 0 0 0 0 0
61 28 8 26 44 27 3 0 0 0 0 0 0 0 0 1 1 9 13 12 11 8 2 0 0 0 3 22 47 65 16 10 4 9 17 68 74 75 48 17 4 0 0
225 145 141 139 119 67 14 1 0 0 0 0 0 0 12 18 22 5 4 5 11 2 0 2 0 0 0 0 24 67 53 41 19 10 29 33 23 38 80 67 47 7 0
425 360 174 93 103 113 47 18 6 11 0 0 0 0 35 50 39 6 9 6 0 0 0 0 0 1 0 0 0 22 54 53 35 29 27 9 5 15 12 12 71 39 64
401 437 309 97 121 200 140 41 14 0 0 0 30 37 41 46 41 23 9 0 0 0 0 0 0 0 6 0 0 0 21 42 17 13 8 1 0 0 13 24 42 61 29
258 229 259 141 162 207 196 155 48 11 5 16 83 56 77 52 13 0 0 0 0 0 0 0 0 0 0 1 0 0 15 27 24 10 13 9 6 18 11 15 21 8 18
240 294 303 248 177 147 141 177 142 19 35 83 121 76 30 6 22 0 2 0 0 0 0 0 0 0 0 0 0 0 0 4 23 34 34 9 7 7 4 3 1 0 0
232 198 250 303 215 146 70 54 90 27 115 126 96 55 73 61 20 6 2 0 0 0 0 0 0 0 0 0 0 0 0 0 14 39 42 15 0 3 1 1 0 0 0
124 111 174 208 148 106 76 59 53 56 1 49 17 1 1 1 22 22 0 0 0 0 0 0 0 0 0 0 0 0 0 0 4 25 37 4 0 0 0 0 5 2 1
68 54 31 145 123 32 17 9 21 8 9 34 1 0 0 0 0 0 0 0 0 0 0 0 0 0 0 0 0 0 0 0 3 3 5 0 0 0 0 2 9 0 0
3 5 32 94 13 66 20 19 25 14 6 0 0 0 0 2 0 0 0 0 0 0 0 0 0 0 0 0 0 0 0 0 0 0 4 2 0 0 0 3 10 4 10
32 16 127 51 23 26 20 28 18 4 0 0 0 0 0 0 0 0 0 0 0 0 0 0 0 0 0 0 0 0 0 0 0 1 1 0 0 0 0 3 8 16 14
214 180 189 119 97 77 28 43 22 0 0 0 0 0 0 0 0 0 0 0 0 0 0 0 0 0 0 0 0 1 0 0 0 0 0 0 0 0 0 3 2 2 5
329 178 169 153 139 102 19 6 1 0 0 0 0 0 0 0 0 0 0 0 0 0 0 0 0 0 0 0 0 1 1 0 0 1 0 0 0 0 0 1 2 1 3
153 64 71 71 52 23 1 0 0 0 0 0 0 0 0 0 0 0 0 0 1 1 1 0 0 0 0 1 1 1 0 0 0 0 0 0 0 0 0 0 0 0 1
0 1 1 1 0 0 0 0 0 0 0 0 0 0 0 0 0 0 0 0 1 0 1 2 0 0 0 2 0 0 0 0 0 0 0 0 0 0 0 0 0 0 1
0 0 0 0 0 0 0 0 0 0 0 0 0 0 0 0 0 0 0 0 0 0 2 2 1 1 2 2 2 1 0 0 0 0 0 0 0 1 1 0 0 0 0
0 0 0 0 0 0 0 0 0 0 0 0 0 0 0 0 0 0 0 0 0 1 2 1 0 0 0 2 1 0 1 0 0 0 0 0 0 0 0 0 0 0 0
0 0 0 0 0 0 0 0 0 0 0 0 0 0 0 0 0 0 0 0 0 1 1 0 0 0 0 0 0 0 1 0 0 0 0 0 0 0 0 0 0 0 0
0 0 0 0 0 0 0 0 0 0 0 0 0 0 0 0 0 0 0 0 0 1 1 0 0 0 0 0 0 0 0 0 0 0 0 0 0 0 0 0 0 0 0
0 0 0 0 0 0 0 0 0 0 0 0 0 0 0 0 0 0 0 0 0 0 0 0 0 0 0 0 0 0 0 0 0 0 0 0 0 0 0 0 0 0 0
0 0 0 0 0 0 0 0 0 0 0 0 0 0 0 0 0 0 1 0 0 0 0 0 0 0 0 0 0 0 0 0 0 0 0 0 0 0 0 0 0 0 0
1 0 0 0 0 0 0 0 0 0 0 0 0 0 0 0 0 0 0 0 0 0 0 0 0 0 0 0 0 0 0 0 0 0 0 0 0 0 0 0 0 0 0
0 1 0 0 0 0 0 0 0 0 0 0 0 0 1 1 0 0 0 0 0 0 0 0 0 0 0 0 0 0 0 0 0 0 0 0 0 0 0 0 0 0 0

GFSMA_con_mlcape_090.txt.gz
CAPE
0 0 0 0 0 0 0 0 0 0 0 0 0 0 0 0 0 0 0 0 0 0 0 0 0 0 0 47 53 28 0 0 0 0 0 0 0 0 0 0 0 0 0
0 0 0 0 0 0 0 0 0 0 0 0 0 0 0 0 0 0 0 0 0 0 0 0 0 0 8 14 32 54 35 23 20 18 3 2 0 0 0 0 0 0 0
0 0 0 0 0 0 0 0 0 0 0 0 0 0 0 0 0 0 0 0 0 0 0 0 0 0 0 8 19 45 27 7 0 0 7 50 43 33 0 0 0 0 0
0 0 0 0 0 0 0 0 0 0 0 0 0 0 0 0 0 0 2 6 2 2 0 0 0 0 0 0 0 32 27 2 0 0 0 14 15 45 80 61 49 0 0
2 0 0 0 13 28 25 1 0 0 0 0 0 0 0 0 7 11 1 1 0 4 0 0 0 0 0 0 0 0 41 0 0 0 0 0 0 0 0 5 37 47 46
144 91 105 111 113 92 52 25 9 8 3 11 0 0 0 10 26 20 8 3 0 0 0 0 0 0 0 0 0 0 0 21 11 0 0 0 0 0 0 0 27 44 46
338 286 201 120 88 145 106 45 49 18 22 23 0 0 3 16 26 36 6 0 0 0 0 0 0 0 0 0 0 0 7 22 19 0 0 0 0 0 19 28 26 13 39
374 329 318 271 96 122 234 175 84 35 17 17 3 36 22 16 3 19 1 0 0 0 0 0 0 0 0 0 0 0 0 22 18 12 8 6 11 9 10 8 4 3 0
320 295 276 288 219 219 242 256 216 162 51 43 15 86 70 22 7 4 0 0 0 0 0 0 0 0 0 0 0 0 0 0 7 34 31 23 14 9 1 10 6 5 0
279 305 286 254 248 207 202 158 86 84 88 106 82 113 43 15 12 3 0 0 0 0 0 0 0 0 0 0 0 0 0 0 0 22 41 34 4 0 0 0 6 18 16
118 169 189 225 192 155 163 87 102 76 39 52 32 17 20 0 0 0 0 0 0 0 0 0 0 0 0 0 0 0 0 0 0 9 44 22 4 2 0 2 5 14 0
91 103 64 104 146 172 143 91 62 29 44 45 1 4 0 8 0 0 0 0 0 0 0 0 0 0 0 0 0 0 0 0 0 3 7 22 1 0 0 1 4 7 1
15 23 20 37 117 99 56 43 9 1 20 5 22 6 4 0 0 6 2 1 0 0 0 0 0 0 0 0 0 0 0 0 0 1 11 3 0 0 0 0 3 5 8
1 5 2 1 53 31 2 46 2 4 3 1 11 1 0 0 4 0 0 0 0 0 0 0 0 0 0 0 0 0 0 0 0 2 1 0 0 0 0 2 2 7 10
57 44 33 72 58 0 14 46 9 15 15 23 18 7 0 0 0 0 0 0 0 0 0 0 0 0 0 0 0 0 0 0 0 0 0 0 0 0 0 3 3 2 1
108 124 79 68 59 50 39 33 33 21 10 3 0 0 0 0 0 0 0 0 0 0 0 0 0 0 0 0 0 0 0 0 0 0 0 0 0 0 0 1 2 0 0
42 115 159 121 91 103 86 44 7 0 1 0 0 0 0 0 0 0 0 0 0 0 0 0 0 0 0 0 0 0 0 0 0 0 0 0 0 0 0 0 0 0 0
0 0 0 35 64 54 24 40 5 0 0 0 0 0 0 0 0 0 0 0 0 0 0 0 0 0 0 1 0 0 0 0 0 0 0 0 0 0 0 0 0 0 0
0 0 0 0 0 0 0 0 0 0 0 0 0 0 0 0 0 0 0 0 0 0 0 0 0 0 0 0 0 0 0 0 0 0 0 0 0 0 1 0 0 0 0
0 0 0 0 0 0 0 0 0 0 0 0 0 0 0 0 0 0 0 0 0 0 0 0 0 0 0 1 0 0 0 0 0 0 0 0 0 0 0 0 0 0 0
0 0 0 0 0 0 0 0 0 0 0 0 0 0 0 0 0 0 0 0 0 0 0 0 0 0 0 0 0 0 0 0 0 0 0 0 0 0 0 0 0 0 0
0 0 0 0 0 0 0 0 0 0 0 0 0 0 0 0 0 0 0 0 0 0 0 1 1 0 0 0 0 0 0 0 0 0 0 0 0 0 0 0 0 0 0
0 0 0 0 0 0 0 0 0 0 0 0 0 0 0 0 0 0 0 0 0 0 0 0 0 0 0 0 0 0 0 0 0 0 0 0 0 0 0 0 0 0 0
0 0 0 0 0 0 0 0 0 0 0 0 0 0 0 0 0 0 0 0 0 0 0 0 0 0 0 0 0 0 0 0 0 0 0 0 0 0 0 0 0 0 0
0 0 0 0 0 0 0 0 0 0 0 0 0 0 0 0 0 0 0 0 0 0 0 0 0 0 0 0 0 0 0 0 0 0 0 0 0 0 0 0 0 0 0
0 0 0 0 0 0 0 0 0 0 0 0 0 0 0 0 0 1 0 0 0 0 0 0 0 0 0 0 0 0 0 0 0 0 0 0 0 0 0 0 0 0 0

GFSMA_con_mlcape_093.txt.gz
CAPE
0 0 0 3 0 0 0 0 0 0 0 0 0 0 0 0 0 0 0 0 0 0 0 0 0 0 0 23 55 31 1 0 0 0 0 0 0 0 0 0 0 0 0
2 13 0 0 0 0 0 0 0 0 0 0 0 0 0 0 0 0 0 0 0 0 0 0 0 0 0 9 11 33 30 25 15 2 0 0 0 0 0 0 0 0 0
4 0 0 0 0 0 0 0 0 0 0 0 0 0 0 0 0 0 0 0 0 0 0 0 0 0 0 0 8 20 40 14 30 15 16 12 9 6 16 0 0 0 0
3 7 0 0 0 0 0 0 0 0 0 0 0 0 0 0 0 0 0 0 0 0 0 0 0 0 0 0 0 42 94 14 1 6 12 13 34 10 37 45 46 13 0
8 0 0 0 0 0 0 0 0 0 0 0 0 4 0 0 4 8 0 2 0 0 0 0 0 0 0 0 0 0 35 54 9 0 0 0 0 0 12 26 13 40 39
4 0 0 0 0 0 0 0 0 0 0 0 0 14 0 0 3 6 2 2 2 3 0 0 0 0 0 0 0 0 0 20 26 0 0 0 1 0 2 14 41 54 50
48 0 0 0 0 34 43 33 16 6 7 5 7 4 0 2 13 7 16 0 0 0 0 0 0 0 0 0 0 0 23 92 45 20 16 3 3 13 23 18 15 17 19
158 146 179 151 119 134 105 64 38 39 35 21 16 18 5 4 6 2 10 1 0 0 0 0 0 0 0 0 0 0 0 19 39 11 9 8 15 15 9 3 0 0 3
111 186 211 255 152 105 175 152 120 59 68 40 37 17 37 22 8 0 0 0 0 0 0 0 0 0 0 0 0 0 0 0 33 26 18 13 4 4 0 0 0 8 15
89 78 108 171 237 192 212 241 227 202 177 113 62 61 9 1 3 0 0 0 0 0 0 0 0 0 0 0 0 0 0 0 0 27 41 38 0 0 6 4 4 16 9
61 87 83 64 92 116 165 145 189 163 96 80 75 43 20 4 6 0 0 0 0 0 0 0 0 0 0 0 0 0 0 0 0 13 39 36 6 0 15 6 2 9 7
14 31 62 49 142 134 84 87 150 121 86 72 54 34 17 0 0 14 0 0 0 0 0 0 0 0 0 0 0 0 0 0 7 22 27 25 3 0 0 0 1 11 11
12 8 49 46 63 65 74 83 125 100 79 60 27 0 0 0 0 1 0 0 0 0 0 0 0 0 0 0 0 0 0 0 0 4 38 12 1 0 0 0 3 0 5
7 15 6 39 18 52 89 84 53 41 16 15 7 3 1 0 0 0 0 0 0 0 0 0 0 0 0 0 0 0 0 0 0 3 3 0 0 0 0 0 1 5 3
6 20 9 19 21 15 19 27 9 25 9 1 7 6 3 0 0 0 0 0 0 0 0 0 0 0 0 0 0 0 0 0 0 0 0 0 0 0 0 0 1 1 1
27 45 35 35 47 34 29 39 19 7 1 7 2 7 8 4 2 0 0 0 0 0 0 0 0 0 0 0 0 0 0 0 0 0 0 0 0 0 0 0 0 1 2
3 12 33 44 43 47 51 57 28 23 7 24 8 6 4 0 0 0 0 0 0 0 0 0 0 0 0 0 0 0 0 0 0 0 0 0 0 0 0 0 0 0 0
0 0 0 4 63 78 109 105 100 58 23 10 0 0 1 0 0 0 0 0 0 0 0 0 0 0 0 0 0 0 0 0 0 0 0 0 0 0 0 0 0 0 0
0 0 0 0 0 0 22 46 67 24 8 0 0 0 0 0 0 0 0 0 0 0 0 0 0 0 1 0 0 0 0 0 0 0 0 0 0 0 2 0 0 0 0
0 0 0 0 0 0 0 0 0 0 0 0 0 0 0 0 0 0 0 0 0 0 0 0 0 0 0 0 0 0 0 0 0 0 0 0 0 0 1 0 0 0 0
0 0 0 0 0 0 0 0 0 0 0 0 0 0 0 0 0 0 0 0 0 0 0 0 0 0 0 0 0 0 0 0 0 0 0 0 0 0 0 0 0 0 0
0 0 0 0 0 0 0 0 0 0 0 0 0 0 0 0 0 0 0 0 0 0 0 0 0 0 0 0 0 0 0 0 0 0 0 0 0 0 0 0 0 0 0
0 0 0 0 0 0 0 0 0 0 0 0 0 0 0 0 0 0 0 0 0 0 0 0 0 0 0 0 0 0 0 0 0 0 0 0 0 0 0 0 0 0 0
0 0 0 0 0 0 0 0 0 0 0 0 0 0 0 0 0 0 0 0 0 0 0 0 0 0 0 0 0 0 0 0 0 0 0 0 0 0 0 0 0 0 0
0 0 0 0 0 0 0 0 0 0 0 0 0 0 0 0 0 0 0 0 0 0 0 0 0 0 0 0 0 0 0 0 0 0 0 0 0 0 0 0 0 0 0
0 0 1 0 0 0 0 0 0 0 0 0 0 0 0 0 0 0 0 0 0 0 0 0 0 0 0 0 0 0 0 0 0 0 0 0 0 0 0 0 0 0 0

GFSMA_con_mlcape_096.txt.gz
CAPE
0 0 0 3 2 2 1 0 0 0 0 0 0 0 0 0 0 0 0 0 0 0 0 0 0 0 0 0 34 26 1 0 0 0 0 0 0 0 0 0 0 0 0
2 3 10 11 1 1 0 0 0 0 0 0 0 0 0 0 0 0 0 0 0 0 0 0 0 0 0 0 11 33 37 19 5 0 0 0 0 0 0 0 0 0 0
15 13 43 36 20 17 11 0 0 0 0 0 0 0 0 0 0 0 0 0 0 0 0 0 0 0 0 12 22 29 27 18 11 33 10 6 11 15 38 0 0 0 0
46 34 5 3 45 59 4 0 0 0 0 0 0 0 0 0 0 0 0 0 0 0 0 0 0 0 9 30 15 0 56 59 21 18 16 17 31 32 22 49 30 47 19
35 60 21 29 27 9 0 0 0 0 0 0 0 0 0 0 0 0 0 0 0 0 0 0 0 0 0 0 0 11 13 86 46 10 0 10 0 0 5 7 0 29 24
71 41 29 14 4 0 0 0 0 0 0 0 0 0 2 0 0 0 0 0 0 0 0 0 0 0 0 0 0 0 2 37 72 26 13 10 0 0 1 10 16 20 17
41 43 52 7 0 5 0 0 0 0 0 0 0 0 0 0 0 0 0 0 0 0 2 0 0 0 0 0 0 0 8 103 147 28 25 13 0 4 21 16 10 7 8
16 50 55 33 6 0 0 0 0 3 1 0 1 20 9 1 0 5 1 5 0 0 0 0 0 0 0 0 0 0 0 10 95 36 13 9 9 6 9 1 2 1 6
50 37 74 82 42 13 6 33 57 57 43 41 50 55 20 16 27 4 4 0 0 0 0 0 0 0 0 0 0 0 0 0 54 37 11 14 12 2 0 0 2 8 5
43 56 93 127 79 78 171 155 112 114 103 97 78 84 49 38 37 10 0 0 0 0 0 0 0 0 0 0 0 0 0 0 2 34 46 41 20 0 0 2 9 14 4
29 27 89 84 94 123 115 164 132 141 139 142 80 55 37 20 0 0 3 0 0 0 0 0 0 0 0 0 0 0 0 0 0 4 47 56 35 1 0 3 13 10 22
9 30 24 28 25 57 76 68 111 112 113 96 62 49 57 49 41 19 3 0 0 0 0 0 0 0 0 0 0 0 0 0 0 0 21 44 11 0 0 0 6 6 5
23 34 31 27 45 54 49 27 46 69 77 72 55 37 35 47 6 22 4 0 0 0 0 0 0 0 0 0 0 0 0 0 0 0 11 26 0 0 0 0 1 2 1
5 2 6 5 24 23 19 11 22 38 33 16 22 28 34 22 1 1 0 0 0 0 0 0 0 0 0 0 0 0 0 0 0 6 8 0 0 0 0 0 2 0 1
9 5 4 3 8 37 33 65 58 28 34 28 24 29 40 5 0 0 0 0 0 0 0 0 0 0 0 0 0 0 0 0 0 0 0 0 0 0 0 0 0 1 0
19 2 23 16 6 12 23 35 23 41 13 10 13 21 15 0 0 0 0 0 0 0 0 0 0 0 0 0 0 0 0 0 0 0 0 0 0 0 0 0 0 0 1
0 0 3 20 39 27 32 28 25 28 26 1 1 6 0 0 0 2 0 0 0 0 0 0 0 0 0 0 0 0 0 0 0 0 0 0 0 0 0 0 0 0 0
0 0 0 0 1 42 49 44 47 46 33 12 16 7 3 0 1 0 0 0 0 0 0 0 0 0 0 0 0 0 0 0 0 0 0 0 0 0 0 0 0 0 0
0 0 0 0 0 0 0 21 68 71 48 31 24 4 18 0 2 0 0 0 0 0 0 0 0 0 0 0 0 0 0 0 0 0 0 0 0 1 2 0 0 0 0
0 0 0 0 0 0 0 0 0 2 6 13 9 4 1 0 1 0 0 0 0 0 0 0 0 0 0 0 0 0 0 0 0 0 0 0 0 0 0 0 0 0 0
0 0 0 0 0 0 0 0 0 0 0 0 0 0 0 0 0 0 0 1 0 0 0 0 0 0 0 0 0 0 0 0 0 0 0 0 0 0 0 0 0 0 0
0 0 0 0 0 0 0 0 0 0 0 0 0 0 0 0 0 1 0 0 0 0 0 0 0 0 0 0 0 0 0 0 0 0 0 0 0 0 0 0 0 0 0
0 0 0 0 0 0 0 0 0 0 0 0 0 0 0 0 0 0 0 0 0 0 0 0 0 0 0 0 0 0 0 0 0 0 0 0 0 0 0 0 0 0 0
0 0 0 0 0 0 0 0 0 0 0 0 0 0 0 0 0 0 0 0 0 0 0 0 0 0 0 0 0 0 0 0 0 0 0 0 0 0 0 0 0 0 0
0 0 0 0 0 0 0 0 0 0 0 0 0 0 0 0 0 0 0 0 0 0 0 0 0 0 0 0 0 0 0 0 0 0 0 0 0 0 0 0 0 0 0
0 0 0 0 0 0 0 1 0 0 0 0 0 0 0 0 0 0 0 0 0 0 0 0 0 0 0 0 0 0 0 0 0 0 0 0 0 0 0 0 0 0 0

GFSMA_con_mlcape_099.txt.gz
CAPE
64 13 2 0 0 0 27 15 3 0 0 0 0 0 0 0 0 0 0 0 0 0 0 0 0 0 6 22 32 22 8 0 0 0 0 0 0 0 0 0 0 0 0
109 47 10 0 0 1 12 28 3 0 0 0 0 0 0 0 0 0 0 0 0 0 0 0 0 0 0 0 19 26 44 56 20 1 0 0 0 0 0 0 0 0 0
118 90 14 1 0 28 19 14 0 0 0 0 0 0 0 0 0 0 0 0 0 0 0 0 0 0 4 17 24 45 54 29 13 7 29 22 20 20 19 25 28 15 0
65 75 15 4 13 25 48 49 24 0 0 0 0 0 0 0 0 0 0 0 0 0 0 0 0 0 3 43 65 32 0 42 28 23 25 36 30 42 34 28 46 36 34
97 62 17 19 0 0 21 51 26 0 0 0 0 0 0 0 0 0 0 0 0 0 0 0 0 0 0 0 7 0 17 28 64 27 19 17 10 0 0 0 9 34 38
82 72 20 1 0 19 44 27 10 0 0 0 0 0 0 0 0 0 0 0 0 0 0 0 0 0 0 0 0 0 0 5 68 70 18 12 0 0 0 6 10 12 16
39 78 78 79 51 51 82 30 40 6 0 0 0 0 0 0 0 0 0 0 0 0 0 0 0 0 0 0 0 0 0 15 70 104 19 0 0 0 8 17 10 1 0
45 60 84 44 51 29 53 11 7 0 0 0 0 0 0 0 0 1 0 1 3 0 0 0 0 0 0 0 0 0 0 0 38 76 32 4 0 1 6 3 1 1 13
74 26 30 23 2 11 43 36 33 40 11 1 0 4 6 0 14 3 1 0 0 0 0 0 0 0 0 0 0 0 0 0 13 81 33 8 14 2 0 0 0 16 19
26 40 13 13 3 28 48 40 25 40 40 18 7 19 43 40 38 25 0 0 0 0 0 0 0 0 0 0 0 0 0 0 0 52 51 30 28 13 3 0 6 10 17
19 16 31 13 17 36 54 56 42 39 48 65 86 53 66 49 9 12 29 1 0 0 0 0 0 0 0 0 0 0 0 0 0 0 22 44 44 22 6 0 2 5 29
14 3 0 20 34 45 69 79 80 98 74 51 66 60 57 64 43 41 35 18 9 0 0 0 0 0 0 0 0 0 0 0 0 0 0 44 36 5 0 0 0 2 4
16 1 13 30 23 36 74 76 54 56 74 51 39 57 38 40 47 46 55 23 5 0 0 0 0 0 0 0 0 0 0 0 0 0 2 31 1 0 0 0 0 1 9
8 2 11 18 32 16 37 40 61 49 44 35 30 24 31 33 35 26 51 24 0 0 0 0 0 0 0 0 0 0 0 0 0 0 14 1 0 0 0 0 0 0 1
0 3 0 2 2 17 6 14 12 28 37 25 8 17 15 25 14 10 13 15 7 6 0 0 0 0 0 0 0 0 0 0 0 0 0 0 0 0 0 0 0 0 1
1 2 4 6 11 16 17 6 24 26 36 44 24 20 14 21 15 8 1 0 0 3 1 0 0 0 0 0 0 0 0 0 0 0 0 0 0 0 0 0 0 0 0
0 0 0 1 2 24 37 34 41 35 25 14 11 1 9 21 13 1 0 0 0 0 0 0 0 0 0 0 0 0 0 0 0 0 0 0 0 0 0 0 0 0 0
0 0 0 0 0 0 3 37 50 45 38 29 35 2 2 2 5 2 0 0 0 0 0 0 0 1 0 0 0 0 0 0 0 0 0 0 0 0 0 0 0 0 0
0 0 0 0 0 0 0 0 1 3 38 42 34 28 20 13 13 2 2 0 1 0 0 0 0 0 1 0 0 0 0 0 0 0 0 0 0 0 1 1 0 0 0
0 0 0 0 0 0 0 0 0 0 0 0 3 21 17 9 1 1 1 1 0 0 0 1 0 0 0 1 1 0 0 0 0 0 0 0 0 0 2 3 0 0 0
0 0 0 0 0 0 0 0 0 0 0 0 0 0 0 3 1 1 0 1 1 0 1 1 0 1 0 0 0 1 0 0 0 0 0 0 0 0 0 2 0 0 0
0 0 0 0 0 0 0 0 0 0 0 0 0 0 0 0 0 0 0 0 0 0 1 0 0 0 0 0 1 0 0 0 0 0 0 0 0 0 0 0 0 0 0
0 0 0 0 0 0 0 0 0 0 0 0 0 0 0 0 0 0 0 0 0 0 0 0 1 0 0 0 0 0 0 0 0 0 0 0 0 0 0 0 0 0 0
0 0 0 0 0 0 0 0 0 0 0 0 0 0 0 0 0 0 0 0 0 0 0 0 0 0 0 0 0 0 0 0 0 0 0 0 0 0 0 0 0 0 0
0 0 0 0 0 0 0 0 0 0 0 0 0 0 0 0 0 0 0 0 0 0 0 0 0 0 0 0 0 0 0 0 0 0 0 0 0 0 0 0 0 0 0
0 0 0 0 0 0 0 0 1 1 3 0 0 0 0 0 0 0 0 0 0 0 0 0 0 0 0 0 0 0 0 0 0 0 0 0 0 0 0 0 0 0 0

GFSMA_con_mlcape_105.txt.gz
CAPE
117 112 96 119 138 88 104 81 33 4 0 0 0 0 0 0 0 0 0 0 0 0 0 9 4 2 5 1 1 0 0 0 0 0 0 0 0 0 0 0 0 0 0
63 105 103 60 58 38 60 83 59 23 0 0 0 0 0 0 0 0 0 0 0 0 0 14 2 18 46 49 48 56 55 53 40 21 1 0 0 0 0 0 0 0 0
107 72 87 100 66 42 30 33 28 46 10 0 0 0 0 0 0 0 0 0 0 0 0 0 0 0 20 68 79 112 96 45 33 20 20 19 5 0 0 0 30 18 11
94 77 94 108 100 65 67 59 9 44 6 11 0 0 0 0 0 0 0 0 0 0 0 0 0 0 0 89 103 100 119 29 0 0 22 31 37 15 0 0 0 0 0
62 48 39 52 82 64 48 51 27 21 6 12 0 2 0 0 0 0 0 0 0 0 0 0 0 0 0 0 73 116 125 32 12 21 39 34 0 13 0 0 0 0 0
62 31 15 55 60 69 54 53 54 10 2 18 11 36 0 0 0 0 0 0 0 0 0 0 0 0 0 0 0 34 101 33 28 38 73 61 46 5 0 0 0 0 0
20 27 28 24 34 35 30 31 60 33 0 0 16 2 0 5 0 0 0 0 0 0 0 0 0 0 0 0 0 7 43 33 54 49 99 149 58 0 0 0 0 0 0
16 5 28 18 3 30 15 4 0 7 2 0 2 0 2 5 8 0 0 0 0 0 0 0 0 0 1 3 6 2 20 28 73 132 177 235 40 0 0 3 0 0 0
24 0 11 51 48 21 25 11 4 0 0 0 0 7 0 1 4 0 1 20 4 1 2 14 16 15 28 30 6 0 0 0 9 103 239 221 70 7 7 3 0 0 0
21 38 23 21 50 39 45 39 32 7 4 1 1 3 3 1 15 3 7 7 35 47 27 44 39 36 42 34 34 18 0 0 0 18 163 207 94 30 25 8 0 0 7
22 26 43 38 33 35 38 48 29 21 16 7 0 0 2 9 44 63 23 41 13 8 31 56 48 18 16 1 13 0 0 0 0 22 75 158 105 52 19 15 8 2 2
12 1 2 15 22 26 32 30 40 42 23 6 4 0 1 23 36 54 44 47 76 86 27 16 19 39 17 1 6 0 0 0 0 8 57 126 92 89 54 21 5 2 1
9 3 4 3 5 8 27 37 47 22 21 4 0 0 0 2 40 56 71 62 62 82 43 4 0 3 4 0 0 0 0 0 0 0 13 56 77 74 49 7 6 3 1
2 2 0 2 5 4 7 11 9 10 7 4 1 1 3 17 23 24 54 72 50 33 40 49 1 0 0 0 0 0 0 0 0 0 0 43 25 1 0 1 1 2 0
1 3 0 0 0 1 2 4 4 10 5 1 3 3 8 33 28 25 27 41 63 53 39 10 4 0 0 0 0 0 0 0 0 0 0 9 0 0 0 0 0 0 0
0 0 0 0 0 0 0 1 2 4 9 12 31 20 31 40 37 40 35 39 61 61 49 13 0 0 0 0 0 0 0 0 0 0 0 0 0 0 0 0 0 0 0
0 0 0 0 0 0 0 0 0 0 1 5 32 2 4 38 37 38 39 48 48 54 30 38 0 0 0 0 1 1 0 0 0 0 0 0 0 0 0 0 0 1 0
0 0 0 0 0 0 0 0 0 0 0 0 0 2 26 39 15 44 47 45 34 34 33 37 0 0 0 2 1 0 0 0 0 0 0 0 0 0 0 1 1 0 0
0 0 0 0 0 0 0 0 0 0 0 0 0 0 0 2 2 25 25 3 7 16 18 8 0 3 1 1 1 1 0 0 0 1 1 0 0 0 0 1 0 0 0
0 0 0 0 0 0 0 0 0 0 0 0 0 0 0 0 2 2 3 17 11 14 1 1 0 0 1 1 1 0 0 1 0 0 1 1 1 1 2 2 0 0 0
0 0 0 0 0 0 0 0 0 0 0 0 0 0 0 0 0 0 0 0 2 12 1 0 1 1 1 1 0 2 2 2 1 1 1 2 2 1 3 4 0 0 0
0 0 0 0 0 0 0 0 0 0 0 0 0 0 0 0 0 0 0 0 0 2 3 2 2 0 0 1 5 2 2 2 1 0 1 2 1 2 0 0 0 0 0
0 0 0 0 0 0 0 0 0 0 0 0 0 0 0 1 0 0 0 0 0 0 0 3 1 0 1 0 0 3 2 0 1 0 2 2 0 0 0 0 0 0 0
0 0 0 0 0 0 0 0 0 0 0 0 0 0 0 1 2 2 1 2 1 0 0 0 1 1 0 0 0 0 0 0 0 1 1 0 1 0 0 0 0 1 0
0 0 0 0 0 0 0 0 0 0 0 0 0 0 0 3 1 3 1 2 1 1 0 0 0 1 0 0 0 2 0 1 1 1 0 0 0 0 0 0 0 3 0
0 0 0 0 0 0 0 0 0 0 0 0 0 0 0 3 12 6 8 4 2 1 1 0 0 0 0 0 1 0 2 2 0 0 1 0 1 0 0 0 0 0 0

GFSMA_con_mlcape_108.txt.gz
CAPE
289 254 318 313 488 350 260 206 142 20 0 0 0 0 0 0 0 0 0 0 0 0 20 67 10 4 3 1 0 0 0 0 0 0 0 0 0 0 0 0 0 0 0
391 465 438 427 373 365 331 242 199 87 2 0 0 0 0 0 0 0 0 0 0 0 0 11 160 134 83 69 35 32 28 27 17 12 0 0 0 0 0 0 0 0 0
206 254 333 339 341 487 170 167 133 85 62 0 0 0 0 0 0 0 0 0 0 0 0 0 0 140 128 142 144 132 107 83 43 15 33 39 0 0 0 0 0 5 0
138 165 191 231 242 228 226 222 192 60 58 40 16 0 0 0 0 0 0 0 0 0 0 0 0 0 68 148 166 147 164 94 92 38 26 39 37 1 0 0 6 0 0
84 151 170 140 132 181 199 187 187 146 49 46 5 1 2 0 0 0 0 0 0 0 0 0 0 0 0 10 151 207 206 179 121 28 16 57 58 61 30 6 0 0 0
104 154 153 142 101 83 135 145 116 100 64 76 6 10 20 2 0 0 0 0 0 0 0 0 0 0 0 0 0 96 193 231 205 69 67 85 90 64 50 1 0 0 0
107 163 152 146 61 40 40 19 26 38 8 31 12 2 0 0 3 5 0 0 0 0 0 0 0 0 0 0 0 4 69 190 224 111 89 142 150 119 65 0 1 0 0
179 178 161 161 166 46 22 4 6 10 5 60 12 10 7 0 0 0 0 0 0 11 12 10 20 17 13 15 10 4 29 104 201 124 152 180 243 189 9 4 4 0 0
229 206 151 201 181 112 21 26 78 67 50 32 26 15 7 1 0 0 0 0 16 43 35 52 47 64 66 61 76 78 37 61 152 174 165 233 346 222 60 9 7 1 1
336 273 228 153 159 143 93 54 73 60 42 12 22 9 1 0 0 0 0 0 15 37 44 62 66 93 117 115 100 101 81 72 106 139 108 207 305 228 120 58 18 10 4
257 253 276 234 178 136 104 124 94 93 46 14 1 0 0 0 0 3 0 9 4 19 41 60 87 74 93 114 129 139 88 50 45 34 32 136 237 220 184 123 14 21 8
267 157 95 79 101 147 133 141 81 44 47 21 13 1 0 0 0 0 0 0 1 28 64 58 80 89 102 102 93 61 31 15 31 19 21 56 151 262 163 136 23 18 16
2 2 2 3 12 11 46 33 34 14 19 41 42 37 20 4 0 0 0 0 0 0 65 60 42 67 86 103 86 47 3 9 0 0 11 39 155 156 158 123 73 11 9
1 0 0 0 2 1 1 0 0 19 60 47 37 38 27 16 5 0 0 0 6 28 73 52 17 26 33 43 46 21 12 0 0 0 8 11 30 87 83 60 35 10 6
0 0 0 0 0 0 0 1 0 2 6 21 7 12 15 15 1 1 1 1 23 29 17 41 7 5 20 8 9 13 9 1 0 0 0 0 22 25 16 10 1 0 1
0 0 0 0 0 0 0 0 0 0 0 0 1 3 3 23 8 2 4 8 25 32 31 7 6 3 2 0 0 3 5 0 0 0 0 0 0 8 0 0 0 0 0
0 0 0 0 0 0 0 0 0 0 0 0 0 0 0 2 3 4 10 12 47 49 35 19 26 0 0 1 0 0 0 0 0 0 0 0 3 13 0 0 0 0 0
0 0 0 0 0 0 0 0 0 0 0 0 0 0 0 1 0 2 36 19 23 37 33 24 14 0 0 0 0 0 2 1 1 1 1 1 0 0 0 0 0 0 0
0 0 0 0 0 0 0 0 0 0 0 0 0 0 0 0 0 1 0 0 3 7 17 17 6 0 0 2 2 2 0 0 0 0 0 0 0 1 0 0 0 0 0
0 0 0 0 0 0 0 0 0 0 0 0 0 0 0 0 0 1 2 1 1 1 2 15 3 0 0 2 2 1 1 0 0 0 1 1 3 3 2 2 1 0 0
0 0 0 0 0 0 0 0 0 0 0 0 0 0 0 0 0 1 1 1 3 3 0 2 0 0 0 1 1 4 2 1 0 0 1 2 2 3 3 2 1 0 0
0 0 0 0 0 0 0 0 0 0 0 0 0 0 0 0 0 0 0 1 2 3 4 5 3 0 0 0 2 3 3 1 0 1 1 2 1 2 1 2 1 0 0
0 0 0 0 0 0 0 0 0 0 0 0 0 0 0 0 0 0 0 1 1 0 1 3 4 4 3 0 0 3 3 0 0 0 3 2 1 2 0 0 0 0 0
0 0 0 0 0 0 0 0 0 0 0 0 0 0 0 0 0 0 0 0 2 0 0 0 2 3 4 7 0 0 0 0 0 0 2 1 2 3 0 0 1 0 0
0 0 0 0 0 0 0 0 0 1 1 0 0 0 0 0 0 0 0 8 3 3 1 2 5 2 0 0 1 1 2 0 0 0 2 0 2 0 0 1 1 0 0
0 0 0 0 0 0 0 0 0 0 0 0 0 0 0 0 1 1 0 0 2 1 5 2 1 4 1 3 0 1 1 1 1 0 1 1 1 0 0 1 1 0 2

GFSMA_con_mlcape_114.txt.gz
CAPE
97 68 55 131 313 452 347 280 232 177 73 5 0 0 0 0 0 0 0 0 0 0 0 49 68 15 0 1 1 0 0 0 0 0 0 0 0 0 0 0 0 0 0
135 157 174 197 231 257 437 395 281 239 93 50 0 0 0 0 0 0 0 0 0 0 0 0 19 132 81 4 4 4 0 0 0 0 0 0 0 0 0 0 0 0 0
144 166 181 165 200 204 260 222 275 283 155 31 0 0 0 0 0 0 0 0 0 0 0 0 0 1 115 236 159 113 68 13 0 0 0 15 10 0 0 0 0 0 0
26 64 193 184 212 180 190 160 251 241 274 125 20 0 0 0 0 0 0 0 0 0 0 0 0 0 0 60 200 244 247 119 110 87 35 0 33 76 43 18 0 0 0
98 35 114 78 45 32 72 55 100 115 51 87 51 44 0 0 0 0 0 0 0 0 0 0 0 0 0 0 20 145 228 210 145 102 61 76 77 74 85 88 53 0 5
129 36 11 39 19 11 15 24 27 40 68 76 63 76 58 2 0 0 0 0 0 0 0 0 0 0 0 0 0 5 134 304 322 154 118 117 123 87 87 144 126 62 18
137 80 68 29 0 0 0 0 0 63 122 152 102 66 52 56 41 0 0 0 0 0 0 0 0 0 0 0 0 0 0 82 205 283 208 184 200 129 104 184 221 192 24
330 228 161 109 72 37 92 103 48 63 97 149 154 124 31 11 18 10 12 1 0 0 0 0 0 0 0 0 1 0 0 10 86 202 273 266 208 129 139 198 252 244 32
375 286 178 156 127 85 97 149 131 95 56 92 135 128 74 4 4 0 6 7 0 0 0 0 0 0 0 0 0 2 5 26 45 127 260 245 230 171 128 197 258 264 69
508 380 157 496 306 185 152 137 172 120 71 100 140 137 66 37 15 0 0 0 0 0 1 1 0 0 0 0 0 0 8 34 70 97 174 261 247 166 188 221 230 263 133
14 44 76 265 255 198 148 116 134 119 121 77 108 75 104 86 57 32 1 0 0 0 0 0 0 0 0 0 3 12 35 65 103 117 178 230 256 321 307 275 224 253 183
3 3 2 3 1 3 0 15 40 90 132 96 80 113 105 81 53 32 7 2 0 0 1 0 0 0 0 0 0 4 39 94 122 150 206 267 229 304 369 322 299 295 171
3 2 1 0 0 0 0 0 2 2 1 5 41 89 98 67 57 48 12 5 2 0 0 0 0 0 0 4 26 17 52 97 113 155 200 197 231 226 280 262 314 174 158
0 0 0 0 0 0 0 0 0 0 0 1 3 3 1 6 16 67 17 20 2 4 0 0 0 0 1 2 23 35 50 71 91 101 154 191 123 217 202 138 109 117 73
0 0 0 0 0 0 0 0 0 0 0 0 0 0 0 0 0 1 0 2 6 6 11 2 0 0 0 0 2 24 2 13 65 85 117 155 124 141 117 82 77 63 63
0 0 0 0 0 0 0 0 0 0 0 0 0 0 0 0 0 0 1 0 0 3 3 7 2 0 1 0 0 7 8 5 7 77 73 77 96 110 72 41 42 48 38
0 0 0 0 0 0 0 0 0 0 0 0 0 0 0 0 0 0 0 0 0 1 4 2 0 1 0 0 0 1 6 0 2 13 43 42 28 35 30 14 9 21 7
0 0 0 0 0 0 0 0 0 0 0 0 0 0 0 0 0 0 0 0 0 0 2 3 1 0 3 0 0 0 1 0 0 0 6 4 23 20 7 0 0 7 14
0 0 0 0 0 0 0 0 0 0 0 0 0 0 0 0 0 0 0 0 0 0 0 0 0 0 0 0 0 0 1 1 0 0 0 0 2 0 0 0 0 0 1
0 0 0 0 0 0 0 0 0 0 0 0 0 0 0 0 0 0 0 0 0 0 0 0 0 0 1 0 0 0 0 0 0 0 0 1 1 0 1 1 0 1 0
0 0 0 0 0 0 0 0 0 0 0 0 0 0 0 0 0 0 0 0 0 0 0 0 0 0 1 1 3 2 0 0 0 0 0 1 2 2 1 0 0 0 0
0 0 0 0 0 0 0 0 0 0 0 0 0 0 0 0 0 0 0 0 0 0 1 1 1 2 3 5 2 3 3 0 0 0 1 0 1 0 0 0 0 1 0
0 0 0 0 0 0 0 0 0 0 0 0 0 0 0 0 0 0 0 0 0 0 0 0 0 1 1 1 1 0 2 4 4 1 0 0 0 0 0 0 1 0 0
0 0 0 0 0 0 0 0 0 0 0 0 0 0 0 0 0 0 0 0 0 0 0 0 0 0 0 0 0 2 1 1 2 0 0 0 0 0 0 0 1 1 0
0 0 0 0 0 0 0 0 0 0 0 0 0 0 0 0 0 0 0 0 0 0 0 0 0 0 0 0 0 0 0 0 2 1 0 0 0 0 0 0 1 0 0
0 0 0 0 0 0 0 0 1 3 1 0 0 0 0 0 3 6 6 1 0 0 0 0 0 0 0 0 0 0 0 5 5 2 1 0 0 0 0 0 0 1 1

GFSMA_con_mlcape_117.txt.gz
CAPE
88 82 122 143 204 274 257 233 146 96 72 36 4 0 0 0 0 0 0 0 0 0 0 0 51 12 0 0 0 0 0 0 0 0 0 0 0 0 0 0 0 0 0
115 158 145 113 148 293 336 294 207 165 133 90 27 0 0 0 0 0 0 0 0 0 0 0 48 118 93 19 2 3 0 0 0 0 0 0 0 0 0 0 0 0 0
210 184 206 125 186 374 435 267 165 228 200 112 90 32 0 0 0 0 0 0 0 0 0 0 0 58 188 175 121 68 58 28 0 0 0 0 0 0 0 0 0 0 0
176 123 177 273 252 274 269 227 215 186 213 156 89 3 0 0 0 0 0 0 0 0 0 0 0 0 20 133 201 286 253 169 127 101 86 82 80 40 53 44 10 1 0
127 103 125 202 153 173 165 152 180 164 127 75 76 20 0 0 0 0 0 0 0 0 0 0 0 0 0 0 54 148 250 316 257 169 124 101 78 40 69 96 69 61 12
215 160 117 135 123 128 107 80 87 63 34 2 1 8 12 8 9 0 0 0 0 0 0 0 0 0 0 0 4 37 141 285 355 252 196 188 133 115 131 121 94 121 101
114 264 182 122 126 121 62 32 33 14 0 0 0 15 8 24 22 19 7 0 0 0 0 0 0 0 0 0 0 4 31 120 338 470 337 237 168 146 171 162 126 179 209
76 339 289 180 109 52 11 0 0 3 11 30 0 2 1 53 41 60 75 57 30 2 0 0 0 0 0 0 0 9 6 44 125 363 576 385 246 159 166 201 141 209 257
116 218 382 300 183 1 0 14 26 28 23 68 86 23 31 12 10 30 67 61 42 23 0 0 0 0 0 0 1 3 0 22 46 108 348 621 454 285 242 254 212 210 295
32 18 172 308 168 130 38 45 78 78 59 32 86 59 40 28 0 2 2 35 54 28 7 0 0 0 0 0 0 3 2 11 23 72 144 343 545 399 350 244 241 229 310
0 0 0 25 41 77 61 79 150 199 192 149 92 70 48 48 38 51 37 7 0 0 0 0 0 0 1 1 1 0 0 0 23 64 159 248 373 597 448 306 272 211 322
6 0 0 2 0 3 1 2 5 10 22 41 54 43 67 72 59 53 50 25 11 0 0 0 0 0 0 0 1 1 0 0 7 43 150 267 294 490 446 388 311 312 364
2 0 1 0 0 2 1 1 0 0 0 0 1 1 0 16 17 51 56 2 7 1 0 0 0 0 0 0 0 0 0 0 4 51 128 260 343 524 422 437 356 495 422
0 0 0 0 0 0 0 0 0 0 0 0 0 0 0 2 0 3 4 3 2 15 2 0 0 0 0 0 0 1 0 0 3 25 76 111 243 451 292 329 365 429 380
0 0 0 0 0 0 0 0 0 0 0 0 0 0 0 0 0 0 4 1 4 3 2 13 5 0 0 0 0 0 0 2 0 17 47 59 92 75 180 220 183 220 132
0 0 0 0 0 0 0 0 0 0 0 0 0 0 0 0 0 0 0 0 0 2 3 0 0 0 0 1 1 0 0 7 13 1 4 1 7 62 118 137 130 100 95
0 0 0 0 0 0 0 0 0 0 0 0 0 0 0 0 0 0 0 0 0 0 0 0 0 0 0 0 0 0 2 1 2 8 12 0 0 27 64 66 45 59 55
0 0 0 0 0 0 0 0 0 0 0 0 0 0 0 0 0 0 0 0 0 0 0 0 0 0 0 0 0 0 1 0 0 1 0 3 0 4 31 10 32 20 8
0 0 0 0 0 0 0 0 0 0 0 0 0 0 0 0 0 0 0 0 0 0 0 0 0 0 0 0 0 0 0 0 0 0 1 0 0 2 6 16 11 9 4
0 0 0 0 0 0 0 0 0 0 0 0 0 0 0 0 0 0 0 0 1 0 1 1 0 0 0 0 0 1 0 1 1 0 0 0 0 0 0 0 0 2 0
0 0 0 0 0 0 0 0 0 0 0 0 0 0 0 0 0 0 0 0 0 0 0 0 0 0 0 0 0 1 1 0 0 0 0 0 0 0 0 0 0 0 0
0 0 0 0 0 0 0 0 0 0 0 0 0 0 0 0 0 0 0 0 0 0 0 0 0 0 0 0 0 0 0 0 1 2 3 3 4 0 0 0 0 0 0
0 0 0 0 0 0 0 0 0 0 0 0 0 0 0 0 0 0 0 0 0 0 0 0 0 0 0 0 0 0 0 0 0 0 0 3 1 1 0 0 0 0 0
0 0 0 0 0 0 0 0 0 0 0 0 0 0 0 0 0 0 0 0 0 0 0 0 0 0 0 0 0 0 0 0 1 0 0 5 3 0 0 0 0 0 0
0 0 0 0 0 0 0 0 0 0 0 0 0 0 0 0 0 0 0 0 0 0 0 0 0 0 0 0 0 0 1 1 1 0 0 3 1 0 0 0 0 0 0
0 0 0 0 0 0 0 0 0 0 0 0 0 0 0 0 0 4 5 6 2 0 0 0 0 0 0 0 0 0 0 4 2 0 0 1 1 0 2 0 0 0 1

GFSMA_con_mlcape_120.txt.gz
CAPE
223 160 56 53 79 100 157 205 200 144 92 79 49 9 0 0 0 0 0 0 0 5 58 94 66 0 0 2 2 0 0 0 0 0 0 0 0 0 0 0 0 0 0
4 128 157 140 186 239 300 292 229 206 164 104 71 29 7 0 0 0 0 0 0 0 30 60 103 98 61 18 16 6 2 1 0 0 0 0 0 0 0 0 0 0 0
0 5 78 85 191 293 291 298 302 223 194 187 142 82 35 0 0 0 0 0 0 0 3 22 32 133 179 69 56 40 48 38 1 0 0 0 0 0 0 0 0 0 0
0 0 0 71 146 202 252 220 237 173 238 263 234 169 104 2 0 0 0 0 0 0 0 4 16 14 105 228 172 155 195 112 81 70 56 31 30 27 25 33 9 4 2
0 0 2 48 56 107 174 235 274 293 234 244 170 160 70 13 0 0 0 0 0 0 0 0 0 3 12 26 57 111 228 231 244 221 196 162 133 142 120 114 86 73 48
0 14 0 0 87 56 106 150 192 198 167 148 173 67 25 22 1 5 5 0 0 0 0 0 0 0 0 0 14 28 90 208 282 290 340 284 233 212 173 159 131 143 107
0 0 0 0 21 77 108 84 100 130 153 115 3 0 0 6 16 14 0 19 5 0 0 0 0 0 0 0 0 0 18 82 206 340 345 371 279 279 253 204 220 215 155
0 0 0 0 58 117 123 121 123 118 94 51 2 11 0 1 16 45 42 15 7 2 0 0 0 0 0 0 0 0 0 48 100 181 414 440 454 361 275 312 307 308 206
2 1 0 5 158 202 105 105 97 128 51 55 29 0 0 0 0 32 28 1 12 50 30 6 2 0 0 0 0 0 0 4 25 112 209 325 503 463 358 231 239 344 290
3 3 2 0 0 194 229 72 99 10 12 13 84 56 41 4 4 1 0 8 48 49 52 29 12 4 0 0 0 0 0 0 12 41 143 189 324 570 460 442 262 327 348
3 4 3 3 0 0 0 145 86 35 99 56 99 92 53 13 0 46 23 9 0 0 21 24 18 12 8 0 0 0 0 0 12 14 121 140 211 205 590 609 547 325 327
0 1 1 3 5 2 0 0 35 1 12 11 39 53 85 86 53 60 49 28 18 6 12 14 10 7 8 7 0 0 0 1 2 14 47 126 151 204 288 622 576 581 331
0 0 0 0 0 1 5 0 0 2 1 0 0 1 2 2 2 1 17 13 20 7 8 1 14 10 9 2 0 0 0 0 0 0 13 74 83 125 199 262 554 651 493
0 0 0 0 0 0 0 0 0 1 4 0 0 0 0 0 0 2 3 2 0 0 11 23 9 0 0 0 0 0 0 0 0 0 0 31 26 32 57 109 183 253 454
0 0 0 0 0 0 0 0 0 0 0 0 0 0 0 0 0 0 0 0 2 2 0 0 0 0 0 0 0 0 0 0 0 0 0 0 5 15 14 37 35 76 264
0 0 0 0 0 0 0 0 0 0 0 0 0 0 0 0 0 0 0 0 0 0 1 0 0 0 0 0 0 0 0 0 0 0 0 0 0 11 22 29 29 41 71
0 0 0 0 0 0 0 0 0 0 0 0 0 0 0 0 0 0 0 0 0 0 0 0 0 0 0 0 0 0 0 0 0 2 1 0 1 1 1 1 3 7 13
0 0 0 0 0 0 0 0 0 0 0 0 0 0 0 0 0 0 0 0 0 0 0 0 0 0 0 0 0 0 0 1 0 0 0 0 2 0 0 0 0 2 13
0 0 0 0 0 0 0 0 0 0 0 0 0 0 0 0 0 0 0 0 0 1 0 0 0 0 0 0 0 0 0 0 0 0 0 0 0 1 1 0 0 0 2
0 0 0 0 0 0 0 0 0 0 0 0 0 0 0 0 0 0 0 0 0 0 0 0 0 0 0 0 0 0 0 0 0 0 2 3 2 2 1 1 1 0 0
0 0 0 0 0 0 0 0 0 0 0 0 0 0 0 0 0 0 0 0 0 0 0 0 0 0 0 0 0 0 0 0 0 3 0 0 1 1 0 1 2 0 0
0 0 0 0 0 0 0 0 0 0 0 0 0 0 0 0 0 0 0 0 0 0 0 0 0 0 0 0 0 0 0 0 0 0 0 0 0 0 0 0 0 0 2
0 0 0 0 0 0 0 0 0 0 0 0 0 0 0 0 0 0 0 0 0 0 0 0 0 0 0 0 0 0 0 0 0 0 0 0 0 0 0 0 0 0 0
0 0 0 0 0 0 0 0 0 0 0 0 0 0 0 0 0 0 0 0 0 0 0 0 0 0 0 0 0 0 0 0 0 0 0 1 0 0 0 0 0 0 0
0 0 0 0 0 0 0 0 0 0 0 0 0 0 0 0 0 1 0 0 0 0 0 0 0 0 0 0 0 0 0 0 0 0 0 0 1 0 0 0 0 0 0
0 0 0 0 0 0 0 0 0 0 0 0 0 0 0 0 2 4 5 0 0 0 0 0 0 0 0 0 0 0 0 0 1 0 0 0 0 0 0 0 0 0 0

GFSMA_con_mlcape_123.txt.gz
CAPE
0 0 0 15 125 111 117 166 208 205 254 202 110 113 92 29 0 0 0 0 0 0 63 280 245 95 5 2 2 3 1 0 0 0 0 0 0 0 0 0 0 0 0
0 0 0 0 0 119 196 197 216 159 165 201 180 99 117 65 7 0 0 0 0 0 0 95 321 287 125 7 5 6 6 3 1 1 0 0 0 0 0 0 0 0 0
0 0 0 0 0 0 41 153 205 219 176 190 174 124 109 61 31 4 0 0 0 0 0 31 174 284 273 139 78 38 12 36 4 3 2 2 0 0 0 0 0 0 0
0 0 0 0 0 0 0 125 290 289 193 174 172 180 125 75 5 1 0 0 0 0 0 0 51 92 98 236 175 89 34 61 56 21 5 0 0 0 0 6 1 0 1
0 0 0 1 0 0 0 30 179 243 155 114 179 220 249 114 22 0 0 0 0 0 0 0 30 67 18 52 175 165 132 176 209 176 106 103 80 65 67 88 74 80 74
0 0 0 0 0 0 1 1 56 195 203 183 188 205 248 188 63 31 10 0 0 0 0 0 0 2 16 14 10 46 110 200 278 326 283 227 184 186 159 160 159 141 131
0 0 0 1 0 0 0 3 114 174 204 152 177 151 125 172 85 34 0 2 0 2 0 2 0 0 0 0 6 12 40 105 115 222 450 421 344 299 303 263 232 218 206
1 0 0 1 4 14 0 2 2 153 133 152 158 83 72 23 0 6 2 0 0 0 0 0 0 0 0 0 0 0 9 42 69 88 123 284 493 349 364 350 307 271 258
0 0 2 1 3 6 134 112 131 139 223 201 198 183 28 0 0 5 5 6 5 0 1 2 16 10 0 0 0 0 0 0 0 17 78 125 173 484 446 445 443 291 318
0 0 0 1 3 5 152 304 288 262 311 274 292 222 49 7 8 0 3 52 46 7 5 8 0 1 0 0 0 0 0 0 0 1 55 70 138 247 503 520 522 392 291
0 0 0 0 3 4 3 1 30 113 253 221 198 121 146 47 50 57 8 2 0 0 31 44 34 27 2 0 0 0 0 3 2 33 77 95 110 89 176 372 557 541 461
0 0 0 0 0 1 3 3 2 0 0 0 0 8 81 61 47 70 68 32 39 14 3 11 24 12 4 4 4 0 0 0 0 7 36 56 64 85 77 145 270 472 479
0 0 0 0 0 0 0 0 1 3 0 0 0 0 0 3 1 1 23 23 6 9 11 7 24 2 0 0 1 0 0 0 0 0 1 7 20 26 25 57 131 186 295
0 0 0 0 0 0 0 0 0 0 0 3 0 0 2 3 0 0 1 0 0 1 1 19 0 0 0 0 0 0 0 0 0 0 0 0 0 0 0 12 19 70 237
0 0 0 0 0 0 0 0 0 0 0 0 0 0 0 2 0 0 0 0 0 0 0 0 0 0 0 0 0 0 0 0 0 1 0 0 0 0 0 0 0 4 19
0 0 0 0 0 0 0 0 0 0 0 0 0 0 0 0 0 0 0 0 0 0 0 0 0 0 0 0 0 0 0 0 0 1 2 0 0 1 0 0 0 12 25
0 0 0 0 0 0 0 0 0 0 0 0 0 0 0 0 0 0 0 0 0 0 0 0 0 0 0 0 0 0 0 0 0 0 0 0 1 0 0 2 1 3 1
0 0 0 0 0 0 0 0 0 0 0 0 0 0 0 0 0 0 0 0 0 0 0 0 0 0 0 0 0 0 0 0 0 0 0 0 2 2 2 1 1 2 0
0 0 0 0 0 0 0 0 0 0 0 0 0 0 0 0 0 0 0 0 0 0 0 0 0 0 0 0 0 0 0 0 0 0 0 1 2 1 1 2 1 1 1
0 0 0 0 0 0 0 0 0 0 0 0 0 0 0 0 0 0 0 0 0 0 0 0 0 0 0 0 0 0 0 0 0 0 0 0 0 0 0 0 1 1 1
0 0 0 0 0 0 0 0 0 0 0 0 0 0 0 0 0 0 0 0 0 0 0 0 0 0 0 0 0 0 0 0 0 0 0 0 0 0 0 0 0 0 0
0 0 0 0 0 0 0 0 0 0 0 0 0 0 0 0 0 0 0 0 0 0 0 0 0 0 0 0 0 0 0 0 0 0 0 0 0 0 0 0 0 0 0
0 0 0 0 0 0 0 0 0 0 0 0 0 0 0 0 0 0 0 0 2 0 0 0 0 0 0 0 0 0 0 0 0 0 0 0 0 0 0 0 0 0 0
0 0 0 0 0 0 0 0 0 0 0 0 0 0 0 0 0 0 0 0 0 0 0 0 0 0 0 0 0 0 0 0 0 0 0 0 0 0 0 0 0 1 2
0 0 0 0 0 0 0 0 0 0 0 0 0 0 0 0 0 1 0 0 0 0 0 0 0 2 2 9 0 0 0 0 0 0 0 0 0 0 0 0 0 0 0
0 0 0 0 0 0 0 0 0 0 0 0 0 0 0 0 0 1 2 0 0 0 0 0 0 0 0 0 0 0 0 0 0 0 0 0 0 0 0 0 0 0 0

GFSMA_con_mlcape_126.txt.gz
CAPE
0 0 0 0 0 0 0 1 31 106 166 207 192 177 157 111 92 17 0 0 0 0 0 100 264 416 151 41 6 6 4 2 0 0 0 0 0 0 0 0 0 0 0
0 0 0 0 0 0 0 0 0 42 99 165 163 115 124 131 121 67 7 0 0 0 0 7 266 312 319 146 77 35 10 5 5 3 2 1 0 0 0 0 0 0 0
0 0 0 0 0 0 0 0 0 11 133 142 150 204 136 108 85 78 42 0 0 0 0 0 5 195 350 245 191 85 32 37 5 4 6 5 3 1 1 0 0 0 0
0 0 0 0 0 0 0 1 2 2 39 214 242 206 175 139 79 53 38 18 3 0 0 0 0 5 164 347 281 196 148 47 48 36 11 7 1 0 0 2 3 2 2
0 0 0 0 0 0 0 0 0 2 0 75 209 226 262 249 196 91 30 20 4 0 0 0 0 0 9 98 230 196 219 134 108 89 60 50 55 67 42 39 44 43 38
1 0 1 1 1 2 3 0 0 0 5 61 201 215 180 243 236 126 50 1 0 0 0 0 0 0 0 1 24 55 85 172 92 93 195 115 92 168 159 130 114 93 109
1 0 0 0 0 0 2 9 0 0 0 47 266 224 208 214 211 159 106 85 26 3 0 0 0 0 0 0 3 9 28 41 40 60 93 242 183 246 282 232 212 197 182
0 0 0 2 1 0 0 1 9 20 53 78 306 228 160 125 127 162 244 182 91 2 0 0 0 0 0 0 2 0 0 2 11 35 28 62 118 274 349 357 341 258 240
0 0 0 1 3 3 2 2 10 40 111 293 277 300 209 152 76 79 179 148 122 19 1 0 0 0 0 1 0 0 0 0 0 0 6 25 22 40 141 312 380 362 341
0 0 0 0 0 2 3 3 4 59 161 162 362 444 346 192 119 43 51 151 167 64 39 10 4 0 1 0 0 1 1 1 11 48 58 103 109 33 77 116 269 385 404
0 0 0 0 0 0 1 2 3 2 2 195 264 363 458 289 192 136 81 41 22 118 149 91 57 20 4 0 0 0 0 0 5 19 44 101 108 141 144 120 193 332 482
0 0 0 0 0 0 0 0 1 3 4 0 2 1 0 0 0 0 8 50 2 9 23 70 88 54 8 1 0 0 0 0 1 1 2 18 27 81 101 146 184 214 290
0 0 0 0 0 0 0 0 0 0 0 3 3 3 1 1 1 0 0 0 35 17 19 1 1 0 0 0 0 0 0 0 0 2 4 5 12 23 7 20 88 120 140
0 0 0 0 0 0 0 0 0 0 0 0 0 0 2 2 2 4 2 0 2 0 0 1 0 0 0 0 0 0 0 0 0 4 3 2 0 0 0 0 0 2 47
0 0 0 0 0 0 0 0 0 0 0 0 0 0 0 0 0 0 0 1 2 2 6 2 2 0 0 0 0 0 0 0 0 2 1 0 0 0 2 2 0 0 0
0 0 0 0 0 0 0 0 0 0 0 0 0 0 0 0 0 0 0 0 0 1 0 0 0 0 0 0 0 0 0 0 0 0 0 0 0 2 3 3 2 1 1
0 0 0 0 0 0 0 0 0 0 0 0 0 0 0 0 0 0 0 0 0 0 0 0 0 0 0 0 0 0 0 0 0 0 0 0 5 2 2 2 3 2 1
0 0 0 0 0 0 0 0 0 0 0 0 0 0 0 0 0 0 0 0 0 0 0 0 0 0 0 0 0 0 0 0 0 0 0 0 0 0 0 0 0 2 4
0 0 0 0 0 0 0 0 0 0 0 0 0 0 0 0 0 0 0 0 0 0 0 0 0 0 0 0 0 0 0 0 0 0 0 0 0 0 0 0 0 0 0
0 0 0 0 0 0 0 0 0 0 0 0 0 0 0 0 0 0 0 0 0 0 0 0 0 0 0 0 0 0 0 0 0 0 0 0 0 0 0 0 0 0 0
0 0 0 0 0 0 0 0 0 0 0 0 0 0 0 0 0 0 0 0 0 0 0 0 0 0 0 0 0 0 0 0 0 0 0 0 0 0 0 0 0 0 0
0 0 0 0 0 0 0 0 0 0 0 0 0 0 0 0 0 0 0 0 3 0 0 0 0 0 0 0 0 0 0 0 0 0 0 0 0 0 0 0 0 0 0
0 0 0 0 0 0 0 0 0 0 0 0 0 0 0 0 0 0 0 0 0 0 4 3 0 0 0 0 0 0 0 0 0 0 0 0 0 0 0 0 0 0 7
0 0 0 0 0 0 0 0 0 0 0 0 0 0 0 0 0 0 0 0 0 0 0 0 0 0 0 0 0 0 0 0 0 0 0 0 0 0 0 0 0 1 0
0 0 0 0 0 0 0 0 0 0 0 0 0 0 0 0 0 0 0 0 0 0 0 0 0 2 4 16 17 0 0 0 0 0 0 0 0 0 0 0 0 0 0
0 0 0 0 0 0 0 0 0 0 0 0 0 0 0 0 0 2 0 0 0 0 0 0 1 0 0 0 0 0 0 0 0 0 0 0 0 0 0 0 0 0 0

GFSMA_con_mlcape_129.txt.gz
CAPE
0 0 0 0 0 0 0 0 0 0 0 16 274 429 422 333 386 348 230 27 0 0 0 0 107 291 483 247 78 26 8 3 4 2 1 1 0 0 0 0 0 0 0
0 0 0 0 0 0 0 0 0 0 0 3 56 269 410 427 333 316 267 191 13 1 0 0 0 267 332 494 246 67 47 9 8 6 4 4 3 1 0 0 0 0 0
0 0 0 0 0 0 0 0 0 0 0 1 6 193 254 423 388 297 296 206 82 4 0 0 0 7 309 435 402 292 128 55 32 8 4 3 2 2 1 0 0 0 0
1 0 0 0 0 0 0 0 0 0 0 2 0 0 214 380 367 352 267 191 105 72 14 0 0 0 11 345 381 361 346 141 70 35 17 5 0 0 1 1 0 0 0
1 0 0 0 0 0 0 0 4 7 3 0 1 10 75 126 242 412 251 147 139 68 61 23 0 0 0 7 123 305 413 320 144 82 53 65 50 44 16 17 42 15 0
0 0 0 0 0 0 2 1 0 5 11 9 1 0 55 304 442 438 378 240 149 100 50 23 17 2 0 1 112 174 385 414 301 171 94 78 51 43 51 78 91 59 59
0 0 0 1 0 0 2 1 3 3 2 16 11 0 0 135 329 451 499 383 205 67 22 30 27 58 41 2 21 47 110 148 103 76 64 32 39 49 74 93 166 168 139
0 0 0 0 1 2 3 2 4 2 13 12 16 37 3 105 461 504 556 335 267 71 41 7 4 3 3 2 0 0 42 71 142 118 80 37 31 34 28 72 128 235 220
0 0 0 0 0 2 3 3 3 4 3 11 21 51 113 154 426 615 555 417 319 147 126 100 17 4 7 1 0 0 0 14 69 113 87 41 15 23 59 49 58 117 204
0 0 0 0 0 0 0 1 1 2 4 1 4 63 122 193 324 294 455 449 318 237 172 157 71 36 27 41 9 1 0 0 0 32 73 72 45 31 36 73 108 69 72
0 0 0 0 0 0 0 0 0 0 0 4 3 2 118 126 184 272 354 390 230 279 238 183 159 111 30 30 4 2 0 1 4 17 96 124 130 158 171 128 161 112 87
0 0 0 0 0 0 0 0 0 0 0 0 2 3 4 2 4 1 0 0 38 154 154 7 16 3 5 2 3 3 3 4 1 1 2 12 64 93 98 106 147 185 199
0 0 0 0 0 0 0 0 0 0 0 0 0 1 1 3 4 5 2 0 0 0 0 0 0 5 2 3 0 4 0 1 3 6 7 5 4 1 0 2 9 43 84
0 0 0 0 0 0 0 0 0 0 0 0 0 0 0 0 0 2 4 2 0 1 0 1 4 2 0 9 5 0 0 1 7 1 3 0 1 3 2 2 3 2 6
0 0 0 0 0 0 0 0 0 0 0 0 0 0 0 0 0 0 0 0 2 1 1 4 4 3 2 5 2 0 0 0 0 0 0 0 1 4 4 4 3 3 0
0 0 0 0 0 0 0 0 0 0 0 0 0 0 0 0 0 0 0 0 0 0 0 0 1 1 0 0 0 0 0 0 0 0 0 0 2 1 0 0 2 3 3
0 0 0 0 0 0 0 0 0 0 0 0 0 0 0 0 0 0 0 0 0 0 0 0 0 0 0 0 0 0 0 0 0 0 0 1 0 0 0 0 0 1 2
0 0 0 0 0 0 0 0 0 0 0 0 0 0 0 0 0 0 0 0 0 0 0 0 0 0 0 0 0 0 0 0 0 0 0 0 0 0 0 0 0 0 0
0 0 0 0 0 0 0 0 0 0 0 0 0 0 0 0 0 0 0 0 0 0 0 0 0 0 0 0 0 0 0 0 0 0 0 0 0 0 0 0 0 0 0
0 0 0 0 0 0 0 0 0 0 0 0 0 0 0 0 0 0 0 0 0 0 0 0 0 0 0 0 0 0 0 0 0 0 0 0 0 0 0 0 0 0 0
0 0 0 0 0 0 0 0 0 0 0 0 0 0 0 0 0 0 0 0 0 0 0 0 0 0 0 0 0 0 0 0 0 0 0 0 0 0 0 0 0 0 0
0 0 0 0 0 0 0 0 0 0 0 0 0 0 0 0 0 0 0 2 4 1 0 0 2 1 1 0 0 0 1 1 0 0 0 0 0 0 0 0 0 0 0
0 0 0 0 0 0 0 0 0 0 0 0 0 0 0 0 0 0 0 0 0 0 0 3 5 5 0 0 0 1 2 0 0 0 0 0 0 0 0 0 0 0 1
0 0 0 0 0 0 0 0 0 0 0 0 0 0 0 0 0 0 0 0 0 0 0 0 0 1 2 0 2 1 3 0 0 0 0 0 0 0 0 0 0 0 0
0 0 0 0 0 0 0 0 0 0 0 0 0 0 0 0 0 2 1 0 0 0 0 0 0 3 5 11 3 2 1 2 1 0 0 0 0 0 0 0 0 0 0
0 0 0 0 0 0 0 0 0 0 0 0 0 0 0 0 2 2 0 4 5 1 0 0 0 2 0 0 0 0 0 1 2 0 0 0 0 0 0 0 0 0 0